Regional Weather Roundup
Issued by NWS

Home | Current Version | Previous Version | Graphics & Text | Print | Product List | Glossary On
Versions: 1 2 3 4 5 6 7 8 9 10 11 12 13 14 15 16 17 18 19 20 21 22 23 24 25 26 27 28 29 30 31 32 33 34 35 36 37 38 39 40 41 42 43 44 45 46 47 48 49 50
000
ASUS43 KBIS 050210
RWRND

NORTH DAKOTA REGIONAL WEATHER ROUNDUP
NATIONAL WEATHER SERVICE BISMARCK ND
800 PM CST SUN DEC 04 2016

NOTE: "FAIR" INDICATES FEW OR NO CLOUDS BELOW 12,000 FEET WITH NO
SIGNIFICANT WEATHER AND/OR OBSTRUCTIONS TO VISIBILITY.


NDZ001>003-009>011-017-050300-
NORTHWEST NORTH DAKOTA

CITY           SKY/WX    TMP DP  RH WIND       PRES   REMARKS
WILLISTON      CLOUDY    24  19  81 CALM      29.55F
MINOT          CLOUDY    15  13  91 SE5       29.60F WCI   8
MINOT AFB      CLOUDY     9   6  88 SE6       29.60F WCI   0
$$

NDZ018>021-031>035-040>046-050300-
SOUTHWEST NORTH DAKOTA

CITY           SKY/WX    TMP DP  RH WIND       PRES   REMARKS
BISMARCK       CLEAR     17  14  88 E5        29.65F WCI  10
DICKINSON      CLOUDY    23  17  78 S9        29.55F WCI  13
GARRISON         N/A     16  13  88 CALM      29.60F
HETTINGER ARPT CLOUDY    30  21  69 S5        29.60F
$$

NDZ004>008-012>016-024-026-027-054-050300-
NORTHEAST NORTH DAKOTA

CITY           SKY/WX    TMP DP  RH WIND       PRES   REMARKS
GRAND FORKS    CLOUDY    30  25  81 W10       29.66R
GRND FRKS AFB  CLOUDY    28  25  86 W7        29.66R
DEVILS LAKE    LGT SNOW  24  23  96 W8        29.65S FOG     WCI  15
$$

NDZ022-023-025-028>030-036>039-047>053-050300-
SOUTHEAST NORTH DAKOTA

CITY           SKY/WX    TMP DP  RH WIND       PRES   REMARKS
FARGO          MOCLDY    28  25  88 SW3       29.68F
JAMESTOWN      CLEAR     24  21  88 SW5       29.66F WCI  18
$$




USA.gov is the U.S. government's official web portal to all federal, state and local government web resources and services.